Regional Weather Roundup
Issued by NWS Little Rock, AR

Home | Current Version | Previous Version | Graphics & Text | Print | Product List | Glossary On
Versions: 1 2 3 4 5 6 7 8 9 10 11 12 13 14 15 16 17 18 19 20 21 22 23 24 25 26 27 28 29 30 31 32 33 34 35 36 37 38 39 40 41 42 43 44 45 46 47
000
ASUS44 KLZK 210105
RWRLZK

WEATHER ROUNDUP FOR ARKANSAS
NATIONAL WEATHER SERVICE LITTLE ROCK AR
800 PM CDT SAT SEP 20 2014

NOTE: "FAIR" INDICATES FEW OR NO CLOUDS BELOW 12,000 FEET WITH NO
SIGNIFICANT WEATHER AND/OR OBSTRUCTIONS TO VISIBILITY.

ARZ001-003-010-029-210200-
NORTHWEST ARKANSAS

CITY           SKY/WX    TMP DP  RH WIND       PRES   REMARKS
FAYETTEVILLE   CLEAR     72  68  87 CALM      30.02R
FORT SMITH     CLEAR     80  68  66 SE3       29.97R
HARRISON       CLEAR     75  68  78 SW3       30.01F
BENTONVILLE    CLEAR     75  64  69 S3        30.03S
ROGERS         CLEAR     75  66  73 S6        30.03S
SILOAM SPGS    CLEAR     75  64  69 CALM      30.03R
HIGHFILL       CLEAR     73  67  81 CALM      30.02R
SPRINGDALE     CLEAR     77  66  69 CALM      30.04R
$$

ARZ004-005-016-210200-
NORTH CENTRAL ARKANSAS

CITY           SKY/WX    TMP DP  RH WIND       PRES   REMARKS
BATESVILLE     PTCLDY    81  66  61 CALM      29.98S
FLIPPIN        CLEAR     77  64  65 SW3       29.98F
MTN HOME       CLEAR     75  68  78 CALM      29.98S
$$

ARZ040-041-210200-
WEST CENTRAL ARKANSAS

CITY           SKY/WX    TMP DP  RH WIND       PRES   REMARKS
MENA           CLEAR     73  70  88 CALM      30.01R
MOUNT IDA      CLEAR     74  70  87 CALM      29.98R
$$

ARZ009-017-025-026-028-210200-
NORTHEAST ARKANSAS

CITY           SKY/WX    TMP DP  RH WIND       PRES   REMARKS
CORNING          N/A     77  72  83 S5        29.96F
JONESBORO      CLEAR     75  68  78 CALM      29.97R
NEWPORT        CLEAR     80  69  69 VRB5      29.98R
WALNUT RIDGE   CLEAR     79  55  44 CALM      29.96R
BLYTHEVILLE    CLEAR     78  72  81 CALM      29.98R
$$

ARZ022-023-033-042-044-210200-
CENTRAL ARKANSAS

CITY           SKY/WX    TMP DP  RH WIND       PRES   REMARKS
LITTLE ROCK    PTCLDY    79  67  66 CALM      29.97R
N LITTLE ROCK  PTCLDY    79  70  75 NW5       29.97R
JACKSONVILLE   CLEAR     75  71  85 CALM      29.98R
SEARCY         CLEAR     75  70  85 CALM      29.99R
HOT SPRINGS    CLEAR     77  68  73 E5        29.99R
RUSSELLVILLE   CLEAR     75  71  87 CALM      29.98R
CLINTON        FAIR      73  72  94 CALM      30.00R
$$

ARZ036-210200-
EAST ARKANSAS

CITY           SKY/WX    TMP DP  RH WIND       PRES   REMARKS
WEST MEMPHIS   PTCLDY    77  70  79 CALM      29.96R
$$

ARZ050-053-066-070-073-210200-
SOUTHWEST ARKANSAS

CITY           SKY/WX    TMP DP  RH WIND       PRES   REMARKS
ARKADELPHIA    FAIR      77  75  93 CALM      29.97R
CAMDEN         CLEAR     77  70  78 CALM      29.95S
TEXARKANA      CLEAR     77  71  82 NE3       29.96S
EL DORADO      CLEAR     75  71  87 CALM      29.96S
DE QUEEN       CLEAR     76  73  91 CALM      29.95R
$$

ARZ056-057-069-210200-
SOUTHEAST ARKANSAS

CITY           SKY/WX    TMP DP  RH WIND       PRES   REMARKS
PINE BLUFF     MOCLDY    80  67  64 CALM      29.96R
STUTTGART      MOCLDY    82  66  57 E3        29.98R HX  85
MONTICELLO     PTCLDY    77  69  76 CALM      29.95F

$$





USA.gov is the U.S. government's official web portal to all federal, state and local government web resources and services.